User: anonymous   Login
Location: Unspecified
(0.0000°N, 0.0000°E)
Time: 04:30:43
(UTC+00:00)
Language:

STARLINK-34696 - Orbit

View from above orbital plane
View from above orbital plane
View from above satellite
View from above satellite

Ground track
Ground track

The orbit is defined by the following mean orbital elements,

1 64808U          26144.65157481 +.00000000 +00000-0 +23524-3 0 00002
2 64808  70.0006 302.9867 0002932 268.2299  91.8525 14.98336068    08
Epoch (UTC): 24 May 2026 15:38:16
Eccentricity: 0.0002932
inclination: 70.0006°
perigee height: 570 km
apogee height: 574 km
right ascension of ascending node: 302.9867°
argument of perigee: 268.2299°
revolutions per day: 14.98336068
mean anomaly at epoch: 91.8525°

The dashed part of the orbit path shows where the satellite is in the earth's shadow,  

DLR